Regional Weather Roundup
Issued by NWS

Home | Current Version | Previous Version | Graphics & Text | Print | Product List | Glossary On
Versions: 1 2 3 4 5 6 7 8 9 10 11 12 13 14 15 16 17 18 19 20 21 22 23 24 25 26 27 28 29 30 31 32 33 34 35 36 37 38 39 40 41 42 43 44 45 46 47 48 49 50
000
ASUS43 KIND 050109
RWRIN

WEATHER ROUNDUP FOR INDIANA
NATIONAL WEATHER SERVICE INDIANAPOLIS IN
900 PM EDT TUE AUG 04 2015

NOTE: "FAIR" INDICATES FEW OR NO CLOUDS BELOW 12,000 FEET WITH NO
SIGNIFICANT WEATHER AND/OR OBSTRUCTIONS TO VISIBILITY.

* - STATION DOES NOT REPORT WEATHER SUCH AS PRECIPITATION OR FOG.

+ - STATION NOT QUALITY CONTROLLED BY THE NATIONAL WEATHER SERVICE.
    USE DATA WITH CAUTION...ESPECIALLY DEWPOINT AND RELATIVE
    HUMIDITY OBSERVATIONS.

INZ001>003-010>013-019-020-050200-
NORTHWEST INDIANA

CITY           SKY/WX    TMP DP  RH WIND       PRES   REMARKS
GARY /AIRPORT/ MOCLDY    73  59  60 NE6       29.97R
KNOX *+        MOCLDY    70  59  68 CALM      29.97R
LA PORTE +     PTCLDY    70  57  62 CALM      29.99R
MICHIGAN CITY+ PTCLDY    68  55  64 CALM      29.98R
MONTICELLO +   PTCLDY    73  62  69 CALM      29.98R
RENSSELAER +   PTCLDY    70  59  68 W3        29.99R
VALPARAISO     PTCLDY    71  59  65 CALM      29.99R

$$

LMZ046-743>745-050200-
SOUTHERN LAKE MICHIGAN

STATION/POSITION TIME  TEMP    WIND        PRES    WAVE
                       AIR SEA DIR/SP/G            HT
                 (UTC) (F)     (DEG/KT/KT) (MB)    (FT)
BURNS HARBOR     0000   77      50/  7/  9 1014.2F
MICHIGAN CITY    0000   75     360/  7/  8   N/A
5NW MICH CITY    0100   74 74   60/ 10/ 14   N/A     1

$$

INZ004-005-014>016-021>024-050200-
NORTH CENTRAL INDIANA

CITY           SKY/WX    TMP DP  RH WIND       PRES   REMARKS
ELKHART        MOCLDY    73  55  53 CALM      29.98R
GOSHEN         MOCLDY    70  59  68 CALM      29.97R
LOGANSPORT +   PTCLDY    68  59  73 SW6       30.00R
PERU/GRISSOM   PTCLDY    69  62  79 SW7       29.99R
ROCHESTER +    PTCLDY    73  61  64 CALM      29.99R
SOUTH BEND     PTCLDY    71  56  58 N6        29.98R
WARSAW +       PTCLDY    70  61  73 CALM      29.98R

$$

INZ006>009-017-018-025>027-050200-
NORTHEAST INDIANA

CITY           SKY/WX    TMP DP  RH WIND       PRES   REMARKS
ANGOLA *+      CLEAR     66  61  82 CALM      29.98R
AUBURN +       MOCLDY    70  55  60 CALM      29.99R
FORT WAYNE     MOCLDY    71  62  73 SW5       29.99R
HUNTINGTON +   PTCLDY    69  61  77 CALM      29.99R

$$

INZ028-029-035-036-043>045-051>053-050200-
WEST CENTRAL INDIANA

CITY           SKY/WX    TMP DP  RH WIND       PRES   REMARKS
CRAWFORDSVL +  MOCLDY    69  64  85 SW5         N/A
GREENCASTLE +  CLOUDY    70  61  73 CALM      30.03R
LAFAYETTE      PTCLDY    70  63  78 CALM      29.98R
TERRE HAUTE    CLOUDY    73  65  75 S3        30.01R

$$

INZ030>032-037>040-046>048-054>057-064-065-050200-
CENTRAL INDIANA

CITY           SKY/WX    TMP DP  RH WIND       PRES   REMARKS
FISHERS *+     MOCLDY    70  64  83 CALM      30.00
FRANKFORT +    PTCLDY    69  69  98 CALM      30.02R
GREENWOOD *+   MOCLDY    73  57  56 CALM      30.01R
INDIANAPOLIS   MOCLDY    75  57  53 W5        29.99R
-EAGLE CREEK   MOCLDY    75  60  59 CALM      29.99R
KOKOMO *+      PTCLDY    72  59  64 W6        30.00R
MARION +       PTCLDY    68  62  80 SW5       30.01R
MT COMFORT *+  MOCLDY    73  61  64 N3        30.01R
SHELBYVILLE    MOCLDY    75  64  68 CALM      29.99R
ZIONSVILLE +   MOCLDY    71  65  82 CALM      30.01R

$$

INZ033-034-041-042-049-050-058-059-050200-
EAST CENTRAL INDIANA

CITY           SKY/WX    TMP DP  RH WIND       PRES   REMARKS
MUNCIE         MOCLDY    70  58  65 CALM      30.00R

$$

INZ060-061-067>069-081>083-085>088-050200-
SOUTHWEST INDIANA

CITY           SKY/WX    TMP DP  RH WIND       PRES   REMARKS
EVANSVILLE     CLOUDY    70  67  90 N6        29.97F
HUNTINGBURG *+ CLOUDY    70  66  88 SE3       30.00F
WASHINGTON +   CLOUDY    75  66  74 CALM      29.99F

$$

INZ062-063-066-070>080-084-089>092-050200-
SOUTH CENTRAL AND SOUTHEAST INDIANA

CITY           SKY/WX    TMP DP  RH WIND       PRES   REMARKS
BLOOMINGTON    CLOUDY    72  68  87 SW5       30.03R
MADISON *+     CLOUDY    75  68  78 CALM      30.04R
NORTH VERNON + MOCLDY    73  68  83 CALM      30.02R
SEYMOUR +      CLOUDY    75  68  78 SW5       30.01R

$$




USA.gov is the U.S. government's official web portal to all federal, state and local government web resources and services.